Location: Berg
(48.4333°N, 13.9167°E)
Time: 22:27:39
(UTC+00:00)

Cosmos 2227 Rocket - Pass Details

Date: 18 September 2020
Orbit: 840 x 844 km, 71.0° (Epoch: 30 October)

Event Time Altitude Azimuth Distance (km) Brightness Sun altitude
Rises 23:35:36 0° 336° (NNW) 3,406 6.0 -39.5°
Reaches altitude 10° 23:38:38 10° 352° (N) 2,468 5.2 -39.4°
Maximum altitude 23:42:58 22° 42° (NE) 1,765 4.3 -39.2°
Enters shadow 23:43:11 22° 45° (NE) 1,767 4.2 -39.2°
